AirNav  
 
 1310 users online  

2R2 Hendricks County Airport-Gordon Graham Field
Indianapolis, Indiana, USA

GOING TO INDIANAPOLIS?


FAA INFORMATION EFFECTIVE 04 JANUARY 2018

Location

FAA Identifier: 2R2
Lat/Long: 39-44-48.4000N / 086-28-30.6000W
39-44.806667N / 086-28.510000W
39.7467778 / -86.4751667
(estimated)
Elevation: 897.8 ft. / 273.6 m (surveyed)
Variation: 03W (1965)
From city: 13 miles W of INDIANAPOLIS, IN
Time zone: UTC -5 (UTC -4 during Daylight Saving Time)
Zip code: 46122

Airport Operations

Airport use: Open to the public
Activation date: 11/2001
Control tower: no
ARTCC: INDIANAPOLIS CENTER
FSS: TERRE HAUTE FLIGHT SERVICE STATION
NOTAMs facility: HUF (NOTAM-D service available)
Attendance: MON-FRI 0700-1530
Wind indicator: lighted
Segmented circle: yes
Lights: MIRL RY 18/36 PRESET ON LOW INTST TO INCR INTST ACTVT - CTAF.
Beacon: white-green (lighted land airport)

Airport Communications

CTAF/UNICOM: 122.7
WX AWOS-3: 118.025 (317-718-4872)
INDIANAPOLIS APPROACH: 121.1
INDIANAPOLIS DEPARTURE: 119.05
WX ASOS at IND (9 nm E): PHONE 317-241-0348
WX ASOS at EYE (10 nm NE): 121.575 (317-329-1754)
WX AWOS-3 at 8A4 (15 nm E): 118.250 (317-955-3160)
WX AWOS-3 at GPC (17 nm SW): 118.125 (765-653-1789)
WX AWOS-3P at HFY (19 nm E): 118.525 (317-882-5862)
WX AWOS-3PT at TYQ (20 nm NE): 120.725 (317-769-3154)

Nearby radio navigation aids

VOR radial/distance  VOR name  Freq  Var
VHPr230/6.4BRICKYARD VORTAC116.3001E
SHBr282/30.8SHELBYVILLE VOR/DME112.0001E
OOMr012/36.7HOOSIER VORTAC110.2002W
TTHr065/39.0TERRE HAUTE VORTAC115.3002E

 
NDB name  Hdg/Dist  Freq  Var  ID
METROPOLITAN243/22.733803WUMP ..- -- .--.
CRAWFORDSVILLE129/24.738804WCFJ -.-. ..-. .---

Airport Services

Fuel available: 100LL MOGAS
Parking: hangars and tiedowns

Runway Information

Runway 18/36

Dimensions: 4400 x 100 ft. / 1341 x 30 m
Surface: asphalt, in good condition
Runway edge lights: medium intensity
Gradient: N.
RUNWAY 18  RUNWAY 36
Latitude: 39-45.169695N39-44.445243N
Longitude: 086-28.506875W086-28.513573W
Elevation: 897.8 ft.864.3 ft.
Gradient: 0.8% UP
Traffic pattern: leftleft
Runway heading: 183 magnetic, 180 true003 magnetic, 000 true
Markings: nonprecision, in good conditionnonprecision, in good condition
Visual slope indicator: 2-light PAPI on left (3.00 degrees glide path)2-light PAPI on left (3.00 degrees glide path)
Runway end identifier lights: yesyes
Touchdown point: yes, no lightsyes, no lights
Obstructions: none25 ft. pline, lighted, 726 ft. from runway, 230 ft. left of centerline, 21:1 slope to clear

Airport Ownership and Management from official FAA records

Ownership: Publicly-owned
Owner: INDIANAPOLIS AIRPORT AUTHORITY
7800 COL. H. WEIR COOK MEMORIAL DR., SUITE 100
INDIANAPOLIS, IN 46241
Phone 317-487-5024
Manager: MICHAEL MEDVESCEK
7800 COL. H. WEIR COOK MEMORIAL DR., SUITE 100
INDIANAPOLIS, IN 46241
Phone 317-487-5024

Airport Operational Statistics

Aircraft based on the field: 54
Single engine airplanes: 51
Multi engine airplanes: 3
    
Aircraft operations: avg 30/day *
50% local general aviation
44% transient general aviation
4% military
2% air taxi
* for 12-month period ending 31 December 2016

Additional Remarks

USE CAUTION FOR RC MODEL AIRCRAFT ACTIVITY LOCATED APPROXIMATELY 1 NM WEST OF THE RWY 18 THRESHOLD OPERATING BLO 400 FT AGL.
FOR CD CTC IND APCH AT 317-227-5743.

Instrument Procedures

NOTE: All procedures below are presented as PDF files. If you need a reader for these files, you should download the free Adobe Reader.

NOT FOR NAVIGATION. Please procure official charts for flight.
FAA instrument procedures published for use between 4 January 2018 at 0901Z and 1 February 2018 at 0900Z.

 
IAPs - Instrument Approach Procedures
RNAV (GPS) RWY 18   download (202KB)
RNAV (GPS) RWY 36   download (183KB)
NOTE: Special Take-Off Minimums/Departure Procedures apply   download (164KB)

Other nearby airports with instrument procedures:

KIND - Indianapolis International Airport (9 nm E)
KEYE - Eagle Creek Airpark (10 nm NE)
8A4 - Indianapolis Downtown Heliport (15 nm E)
KGPC - Putnam County Regional Airport (17 nm SW)
KHFY - Indy South Greenwood Airport (19 nm E)
KTYQ - Indianapolis Executive Airport (20 nm NE)
 
Loc | Ops | Rwys | IFR | FBO | Links
Com | Nav | Svcs | Stats | Notes


 
Area around 2R2 (Hendricks County Airport-Gordon Graham Field)
 
Road maps at: MapQuest Bing Google
 
Aerial photo
WARNING: Photo may not be current or correct
Aerial photo of 2R2 (Hendricks County Airport-Gordon Graham Field)
Photo by Sara Gradwohl
Photo taken 12-Aug-2013
looking north.

Do you have a better or more recent aerial photo of Hendricks County Airport-Gordon Graham Field that you would like to share? If so, please send us your photo.

 
Sectional chart

 
Airport distance calculator
Flying to Hendricks County Airport-Gordon Graham Field? Find the distance to fly.

From to 2R2

Sunrise and sunset
Times for 22-Jan-2018
 Local
(UTC-5)
 Zulu
(UTC)
Morning civil twilight07:3412:34
Sunrise08:0313:03
Sunset17:5222:52
Evening civil twilight18:2223:22

Current date and time
Zulu (UTC)  22-Jan-2018 15:24:38
Local (UTC-5)  22-Jan-2018 10:24:38
 
METAR
KIND 
9nm E 
221454Z 17020G31KT 4SM RA BR FEW055 BKN070 OVC085 11/09 A2980 RMK AO2 PK WND 17031/1448 SLP090 P0021 60023 T01060094 50013
KEYE 
10nm NE 
221453Z AUTO 17011G22KT 4SM RA BR OVC065 11/09 A2978 RMK AO2 SLP086 P0025 60030 T01060089 50009
KGPC 
17nm SW 
221455Z AUTO 18015G22KT 5SM -RA SCT010 BKN015 OVC026 10/10 A2976 RMK AO2 P0009
KHFY 
19nm E 
221235Z AUTO 15009KT 10SM CLR 10/07 A2977 RMK AO2 T01020070
KTYQ 
20nm NE 
221455Z AUTO 17014G17KT 7SM -RA BKN033 BKN040 OVC070 09/08 A2978 RMK AO2 P0020 60024 T00850080
TAF
KIND 
9nm E 
221244Z 2213/2318 16011KT P6SM VCSH OVC060 WS020/19040KT TEMPO 2213/2214 25025G35KT 2SM -TSRA BR BKN040CB FM221530 18015KT 5SM SHRA OVC025 FM221800 18015G23KT P6SM VCSH OVC010 FM230100 19012KT P6SM VCSH BKN050 FM230900 22012KT P6SM -SHRA OVC015 FM231200 23012KT P6SM OVC008
NOTAMs
Click for the latest NOTAMs
NOTAMs are issued by the DoD/FAA and will open in a separate window not controlled by AirNav.

 

 
 

FBO, Fuel Providers, and Aircraft Ground Support

  
 Business Name 
 
 Contact 
 
 Services / Description 
 
Fuel Prices
 
Comments
  
Hendricks County Airport 317-745-2389
[email]
Airport management, Aviation fuel, Aircraft parking (ramp or tiedown), Passenger terminal and lounge, Pilots lounge / snooze room, Public telephone, ...

More info about Hendricks County Airport
Phillips 66
100LL Mogas
SS $3.90 $3.45 
 Updated 14-Dec-2017
 
   write
SS=Self service
Update Fuel Prices
 

Would you like to see your business listed on this page?

 If your business provides an interesting product or service to pilots, flight crews, aircraft, or users of the Hendricks County Airport-Gordon Graham Field, you should consider listing it here.  To start the listing process, click on the button below
 
Add a business
 

Other Pages about Hendricks County Airport-Gordon Graham Field

www.indianapolisairport.com/...
 
Update a link
 
Copyright © AirNav, LLC. All rights reserved. Privacy Policy  Contact